Time,TemperatureF,DewpointF,PressureIn,WindDirection,WindDirectionDegrees,WindSpeedMPH,WindSpeedGustMPH,Humidity,HourlyPrecipIn,Conditions,Clouds,dailyrainin,SoftwareType,DateUTC
2013-07-01 00:00:00,66.8,55.1,29.78,WNW,303,0.0,0.0,66,0.00,,,0.00,Wunderground v.1.15,2013-07-01 07:00:00,
2013-07-01 00:10:00,66.9,54.7,29.78,WNW,303,0.0,0.0,65,0.00,,,0.00,Wunderground v.1.15,2013-07-01 07:10:00,
2013-07-01 00:15:00,66.7,54.6,29.78,WNW,303,0.0,0.0,65,0.00,,,0.00,Wunderground v.1.15,2013-07-01 07:15:00,
2013-07-01 00:20:00,66.6,54.9,29.78,WNW,303,0.0,0.0,66,0.00,,,0.00,Wunderground v.1.15,2013-07-01 07:20:00,
2013-07-01 00:25:00,66.4,54.7,29.78,WNW,303,0.0,0.0,66,0.00,,,0.00,Wunderground v.1.15,2013-07-01 07:25:00,
2013-07-01 00:35:00,66.1,54.4,29.78,WNW,303,0.0,0.0,66,0.00,,,0.00,Wunderground v.1.15,2013-07-01 07:35:00,
2013-07-01 00:40:00,66.0,54.3,29.78,WNW,303,0.0,0.0,66,0.00,,,0.00,Wunderground v.1.15,2013-07-01 07:40:00,
2013-07-01 00:45:00,66.0,54.7,29.79,WNW,303,0.0,0.0,67,0.00,,,0.00,Wunderground v.1.15,2013-07-01 07:45:00,
2013-07-01 00:50:00,65.9,54.6,29.79,WNW,303,0.0,0.0,67,0.00,,,0.00,Wunderground v.1.15,2013-07-01 07:50:00,
2013-07-01 00:55:00,65.7,54.8,29.79,WNW,303,0.0,0.0,68,0.00,,,0.00,Wunderground v.1.15,2013-07-01 07:55:00,
2013-07-01 01:00:00,65.4,54.6,29.79,WNW,303,0.0,0.0,68,0.00,,,0.00,Wunderground v.1.15,2013-07-01 08:00:00,
2013-07-01 01:10:00,64.7,54.3,29.79,WNW,303,0.0,0.0,69,0.00,,,0.00,Wunderground v.1.15,2013-07-01 08:10:00,
2013-07-01 01:15:00,64.3,54.3,29.79,WNW,303,0.0,0.0,70,0.00,,,0.00,Wunderground v.1.15,2013-07-01 08:15:00,
2013-07-01 01:20:00,64.1,54.1,29.79,WNW,303,0.0,0.0,70,0.00,,,0.00,Wunderground v.1.15,2013-07-01 08:20:00,
2013-07-01 01:25:00,63.8,53.8,29.79,WNW,303,0.0,0.0,70,0.00,,,0.00,Wunderground v.1.15,2013-07-01 08:25:00,
2013-07-01 01:30:00,63.5,53.9,29.79,WNW,303,0.0,0.0,71,0.00,,,0.00,Wunderground v.1.15,2013-07-01 08:30:00,
2013-07-01 01:35:00,63.3,54.1,29.79,WNW,303,0.0,0.0,72,0.00,,,0.00,Wunderground v.1.15,2013-07-01 08:35:00,
2013-07-01 01:40:00,63.2,54.4,29.79,WNW,303,0.0,0.0,73,0.00,,,0.00,Wunderground v.1.15,2013-07-01 08:40:00,
2013-07-01 01:45:00,63.1,53.9,29.79,WNW,303,0.0,0.0,72,0.00,,,0.00,Wunderground v.1.15,2013-07-01 08:45:00,
2013-07-01 01:55:00,62.6,53.8,29.79,WNW,303,0.0,0.0,73,0.00,,,0.00,Wunderground v.1.15,2013-07-01 08:55:00,
2013-07-01 02:00:00,62.4,54.0,29.79,WNW,303,0.0,0.0,74,0.00,,,0.00,Wunderground v.1.15,2013-07-01 09:00:00,
2013-07-01 02:10:00,62.0,53.6,29.79,WNW,303,0.0,0.0,74,0.00,,,0.00,Wunderground v.1.15,2013-07-01 09:10:00,
2013-07-01 02:15:00,61.8,53.4,29.79,WNW,303,0.0,0.0,74,0.00,,,0.00,Wunderground v.1.15,2013-07-01 09:15:00,
2013-07-01 02:20:00,61.6,53.6,29.79,WNW,303,0.0,0.0,75,0.00,,,0.00,Wunderground v.1.15,2013-07-01 09:20:00,
2013-07-01 02:25:00,61.5,53.5,29.79,WNW,303,0.0,0.0,75,0.00,,,0.00,Wunderground v.1.15,2013-07-01 09:25:00,
2013-07-01 02:30:00,61.6,53.6,29.79,WNW,303,0.0,0.0,75,0.00,,,0.00,Wunderground v.1.15,2013-07-01 09:30:00,
2013-07-01 02:35:00,61.5,53.5,29.79,WNW,303,0.0,0.0,75,0.00,,,0.00,Wunderground v.1.15,2013-07-01 09:35:00,
2013-07-01 02:40:00,61.3,53.3,29.79,WNW,303,0.0,0.0,75,0.00,,,0.00,Wunderground v.1.15,2013-07-01 09:40:00,
2013-07-01 02:50:00,61.1,53.8,29.79,WNW,303,0.0,0.0,77,0.00,,,0.00,Wunderground v.1.15,2013-07-01 09:50:00,
2013-07-01 02:55:00,61.2,53.6,29.79,WNW,303,0.0,0.0,76,0.00,,,0.00,Wunderground v.1.15,2013-07-01 09:55:00,
2013-07-01 03:00:00,61.3,54.0,29.79,WNW,303,0.0,0.0,77,0.00,,,0.00,Wunderground v.1.15,2013-07-01 10:00:00,
2013-07-01 03:05:00,61.5,53.9,29.79,WNW,303,0.0,0.0,76,0.00,,,0.00,Wunderground v.1.15,2013-07-01 10:05:00,
2013-07-01 03:10:00,61.7,54.1,29.79,WNW,303,0.0,0.0,76,0.00,,,0.00,Wunderground v.1.15,2013-07-01 10:10:00,
2013-07-01 03:15:00,61.7,54.1,29.79,WNW,303,0.0,0.0,76,0.00,,,0.00,Wunderground v.1.15,2013-07-01 10:15:00,
2013-07-01 03:25:00,61.4,53.8,29.80,WNW,303,0.0,0.0,76,0.00,,,0.00,Wunderground v.1.15,2013-07-01 10:25:00,
2013-07-01 03:30:00,61.3,53.7,29.80,WNW,303,0.0,0.0,76,0.00,,,0.00,Wunderground v.1.15,2013-07-01 10:30:00,
2013-07-01 03:40:00,61.2,53.6,29.80,WNW,303,0.0,0.0,76,0.00,,,0.00,Wunderground v.1.15,2013-07-01 10:40:00,
2013-07-01 03:45:00,61.2,53.6,29.80,WNW,303,0.0,0.0,76,0.00,,,0.00,Wunderground v.1.15,2013-07-01 10:45:00,
2013-07-01 03:50:00,61.1,53.5,29.80,WNW,303,0.0,0.0,76,0.00,,,0.00,Wunderground v.1.15,2013-07-01 10:50:00,
2013-07-01 03:55:00,61.2,53.9,29.80,WNW,303,0.0,0.0,77,0.00,,,0.00,Wunderground v.1.15,2013-07-01 10:55:00,
2013-07-01 04:00:00,61.3,54.0,29.80,WNW,303,0.0,0.0,77,0.00,,,0.00,Wunderground v.1.15,2013-07-01 11:00:00,
2013-07-01 04:05:00,61.5,53.9,29.80,WNW,303,0.0,0.0,76,0.00,,,0.00,Wunderground v.1.15,2013-07-01 11:05:00,
2013-07-01 04:10:00,61.6,54.0,29.80,WNW,303,0.0,0.0,76,0.00,,,0.00,Wunderground v.1.15,2013-07-01 11:10:00,
2013-07-01 04:15:00,61.5,53.9,29.81,WNW,303,0.0,0.0,76,0.00,,,0.00,Wunderground v.1.15,2013-07-01 11:15:00,
2013-07-01 04:20:00,61.5,54.2,29.81,WNW,303,0.0,0.0,77,0.00,,,0.00,Wunderground v.1.15,2013-07-01 11:20:00,
2013-07-01 04:30:00,61.9,55.0,29.81,NW,321,0.0,0.0,78,0.00,,,0.00,Wunderground v.1.15,2013-07-01 11:30:00,
2013-07-01 04:35:00,62.2,54.9,29.81,NW,321,0.0,0.0,77,0.00,,,0.00,Wunderground v.1.15,2013-07-01 11:35:00,
2013-07-01 04:40:00,62.4,54.7,29.80,NW,321,0.0,0.0,76,0.00,,,0.00,Wunderground v.1.15,2013-07-01 11:40:00,
2013-07-01 04:45:00,62.5,54.8,29.80,NW,321,0.0,0.0,76,0.00,,,0.00,Wunderground v.1.15,2013-07-01 11:45:00,
2013-07-01 04:50:00,62.4,54.7,29.80,NW,321,0.0,0.0,76,0.00,,,0.00,Wunderground v.1.15,2013-07-01 11:50:00,
2013-07-01 04:55:00,62.3,54.6,29.80,NW,321,0.0,0.0,76,0.00,,,0.00,Wunderground v.1.15,2013-07-01 11:55:00,
2013-07-01 05:05:00,62.7,54.7,29.80,NW,321,0.0,0.0,75,0.00,,,0.00,Wunderground v.1.15,2013-07-01 12:05:00,
2013-07-01 05:10:00,63.1,54.7,29.80,NW,321,0.0,0.0,74,0.00,,,0.00,Wunderground v.1.15,2013-07-01 12:10:00,
2013-07-01 05:15:00,63.3,54.9,29.80,NW,321,0.0,0.0,74,0.00,,,0.00,Wunderground v.1.15,2013-07-01 12:15:00,
2013-07-01 05:20:00,63.4,54.6,29.80,NW,321,0.0,0.0,73,0.00,,,0.00,Wunderground v.1.15,2013-07-01 12:20:00,
2013-07-01 05:30:00,63.3,54.9,29.80,NW,321,0.0,0.0,74,0.00,,,0.00,Wunderground v.1.15,2013-07-01 12:30:00,
2013-07-01 05:35:00,63.1,54.7,29.81,NW,321,0.0,0.0,74,0.00,,,0.00,Wunderground v.1.15,2013-07-01 12:35:00,
2013-07-01 05:40:00,62.9,54.5,29.80,NW,321,0.0,0.0,74,0.00,,,0.00,Wunderground v.1.15,2013-07-01 12:40:00,
2013-07-01 05:45:00,62.9,54.5,29.80,NW,321,0.0,0.0,74,0.00,,,0.00,Wunderground v.1.15,2013-07-01 12:45:00,
2013-07-01 05:55:00,62.6,54.6,29.80,NW,321,0.0,0.0,75,0.00,,,0.00,Wunderground v.1.15,2013-07-01 12:55:00,
2013-07-01 06:00:00,62.5,54.5,29.80,NW,321,0.0,0.0,75,0.00,,,0.00,Wunderground v.1.15,2013-07-01 13:00:00,
2013-07-01 06:10:00,62.4,54.4,29.81,NW,321,0.0,0.0,75,0.00,,,0.00,Wunderground v.1.15,2013-07-01 13:10:00,
2013-07-01 06:15:00,62.6,54.6,29.81,NW,321,0.0,0.0,75,0.00,,,0.00,Wunderground v.1.15,2013-07-01 13:15:00,
2013-07-01 06:20:00,62.7,54.7,29.81,NW,321,0.0,0.0,75,0.00,,,0.00,Wunderground v.1.15,2013-07-01 13:20:00,
2013-07-01 06:25:00,62.8,54.8,29.81,NW,321,0.0,0.0,75,0.00,,,0.00,Wunderground v.1.15,2013-07-01 13:25:00,
2013-07-01 06:30:00,62.8,54.8,29.81,NW,321,0.0,0.0,75,0.00,,,0.00,Wunderground v.1.15,2013-07-01 13:30:00,
2013-07-01 06:40:00,63.4,55.3,29.81,NW,321,0.0,0.0,75,0.00,,,0.00,Wunderground v.1.15,2013-07-01 13:40:00,
2013-07-01 06:45:00,63.8,55.7,29.81,NW,321,0.0,0.0,75,0.00,,,0.00,Wunderground v.1.15,2013-07-01 13:45:00,
2013-07-01 06:50:00,64.0,55.5,29.81,NW,321,0.0,0.0,74,0.00,,,0.00,Wunderground v.1.15,2013-07-01 13:50:00,
2013-07-01 06:55:00,64.1,55.6,29.81,NW,321,0.0,0.0,74,0.00,,,0.00,Wunderground v.1.15,2013-07-01 13:55:00,
2013-07-01 07:05:00,64.3,55.8,29.81,NW,321,0.0,0.0,74,0.00,,,0.00,Wunderground v.1.15,2013-07-01 14:05:00,
2013-07-01 07:15:00,65.1,56.2,29.81,NW,321,0.0,0.0,73,0.00,,,0.00,Wunderground v.1.15,2013-07-01 14:15:00,
2013-07-01 07:20:00,65.6,56.3,29.81,NW,321,0.0,0.0,72,0.00,,,0.00,Wunderground v.1.15,2013-07-01 14:20:00,
2013-07-01 07:30:00,66.6,56.5,29.81,NW,321,0.0,0.0,70,0.00,,,0.00,Wunderground v.1.15,2013-07-01 14:30:00,
2013-07-01 07:35:00,67.1,57.0,29.81,NW,321,0.0,0.0,70,0.00,,,0.00,Wunderground v.1.15,2013-07-01 14:35:00,
2013-07-01 07:40:00,67.7,57.2,29.81,NW,321,0.0,0.0,69,0.00,,,0.00,Wunderground v.1.15,2013-07-01 14:40:00,
2013-07-01 07:45:00,68.2,57.2,29.81,NW,321,0.0,0.0,68,0.00,,,0.00,Wunderground v.1.15,2013-07-01 14:45:00,
2013-07-01 07:50:00,68.8,57.4,29.81,NW,321,0.0,0.0,67,0.00,,,0.00,Wunderground v.1.15,2013-07-01 14:50:00,
2013-07-01 07:55:00,69.4,57.1,29.82,NW,321,0.0,0.0,65,0.00,,,0.00,Wunderground v.1.15,2013-07-01 14:55:00,
2013-07-01 08:05:00,70.9,57.7,29.82,NW,320,0.0,0.0,63,0.00,,,0.00,Wunderground v.1.15,2013-07-01 15:05:00,
2013-07-01 08:10:00,71.4,58.1,29.82,NW,320,0.0,0.0,63,0.00,,,0.00,Wunderground v.1.15,2013-07-01 15:10:00,
2013-07-01 08:15:00,71.8,58.1,29.82,NW,316,0.0,0.0,62,0.00,,,0.00,Wunderground v.1.15,2013-07-01 15:15:00,
2013-07-01 08:25:00,73.0,57.8,29.82,NW,306,0.0,0.0,59,0.00,,,0.00,Wunderground v.1.15,2013-07-01 15:25:00,
2013-07-01 08:30:00,73.6,57.9,29.82,NNW,333,0.0,0.0,58,0.00,,,0.00,Wunderground v.1.15,2013-07-01 15:30:00,
2013-07-01 08:35:00,74.2,57.5,29.82,WNW,293,0.0,0.0,56,0.00,,,0.00,Wunderground v.1.15,2013-07-01 15:35:00,
2013-07-01 08:40:00,74.6,57.4,29.82,WNW,285,0.0,3.0,55,0.00,,,0.00,Wunderground v.1.15,2013-07-01 15:40:00,
2013-07-01 08:45:00,74.9,57.6,29.82,NW,304,1.0,3.0,55,0.00,,,0.00,Wunderground v.1.15,2013-07-01 15:45:00,
2013-07-01 08:50:00,75.3,57.5,29.82,NW,313,1.0,3.0,54,0.00,,,0.00,Wunderground v.1.15,2013-07-01 15:50:00,
2013-07-01 09:00:00,75.5,57.7,29.82,NW,306,2.0,2.0,54,0.00,,,0.00,Wunderground v.1.15,2013-07-01 16:00:00,
2013-07-01 09:05:00,75.9,58.1,29.82,NW,309,2.0,2.0,54,0.00,,,0.00,Wunderground v.1.15,2013-07-01 16:05:00,
2013-07-01 09:10:00,76.4,58.5,29.82,West,273,1.0,1.0,54,0.00,,,0.00,Wunderground v.1.15,2013-07-01 16:10:00,
2013-07-01 09:15:00,77.0,58.6,29.82,SW,227,0.0,1.0,53,0.00,,,0.00,Wunderground v.1.15,2013-07-01 16:15:00,
2013-07-01 09:20:00,77.4,57.9,29.82,WNW,284,1.0,1.0,51,0.00,,,0.00,Wunderground v.1.15,2013-07-01 16:20:00,
2013-07-01 09:25:00,77.5,58.5,29.82,West,260,1.0,1.0,52,0.00,,,0.00,Wunderground v.1.15,2013-07-01 16:25:00,
2013-07-01 09:30:00,77.7,58.7,29.82,NNW,327,1.0,1.0,52,0.00,,,0.00,Wunderground v.1.15,2013-07-01 16:30:00,
2013-07-01 09:35:00,78.4,59.3,29.82,WSW,257,1.0,1.0,52,0.00,,,0.00,Wunderground v.1.15,2013-07-01 16:35:00,
2013-07-01 09:45:00,79.8,59.5,29.82,West,265,0.0,1.0,50,0.00,,,0.00,Wunderground v.1.15,2013-07-01 16:45:00,
2013-07-01 09:50:00,80.3,60.0,29.82,SSW,193,0.0,0.0,50,0.00,,,0.00,Wunderground v.1.15,2013-07-01 16:50:00,
2013-07-01 09:55:00,81.1,59.6,29.82,West,265,0.0,4.0,48,0.00,,,0.00,Wunderground v.1.15,2013-07-01 16:55:00,
2013-07-01 10:00:00,81.4,59.2,29.82,West,267,1.0,2.0,47,0.00,,,0.00,Wunderground v.1.15,2013-07-01 17:00:00,
2013-07-01 10:05:00,81.8,59.6,29.82,WSW,248,1.0,2.0,47,0.00,,,0.00,Wunderground v.1.15,2013-07-01 17:05:00,
2013-07-01 10:10:00,82.3,60.1,29.82,WSW,246,0.0,0.0,47,0.00,,,0.00,Wunderground v.1.15,2013-07-01 17:10:00,
2013-07-01 10:15:00,83.3,61.0,29.82,South,183,0.0,0.0,47,0.00,,,0.00,Wunderground v.1.15,2013-07-01 17:15:00,
2013-07-01 10:20:00,84.5,60.8,29.82,SSW,198,0.0,0.0,45,0.00,,,0.00,Wunderground v.1.15,2013-07-01 17:20:00,
2013-07-01 10:25:00,85.5,60.4,29.82,South,184,0.0,0.0,43,0.00,,,0.00,Wunderground v.1.15,2013-07-01 17:25:00,
2013-07-01 10:30:00,85.6,60.5,29.82,ESE,122,1.0,1.0,43,0.00,,,0.00,Wunderground v.1.15,2013-07-01 17:30:00,
2013-07-01 10:35:00,85.6,60.5,29.82,SE,133,1.0,1.0,43,0.00,,,0.00,Wunderground v.1.15,2013-07-01 17:35:00,
2013-07-01 10:45:00,86.4,59.9,29.82,SE,135,0.0,1.0,41,0.00,,,0.00,Wunderground v.1.15,2013-07-01 17:45:00,
2013-07-01 10:50:00,87.1,60.5,29.82,SE,135,0.0,0.0,41,0.00,,,0.00,Wunderground v.1.15,2013-07-01 17:50:00,
2013-07-01 10:55:00,87.9,61.9,29.82,SE,135,0.0,0.0,42,0.00,,,0.00,Wunderground v.1.15,2013-07-01 17:55:00,
2013-07-01 11:00:00,88.7,61.3,29.83,SE,138,0.0,2.0,40,0.00,,,0.00,Wunderground v.1.15,2013-07-01 18:00:00,
2013-07-01 11:05:00,88.7,61.3,29.82,SSE,152,1.0,2.0,40,0.00,,,0.00,Wunderground v.1.15,2013-07-01 18:05:00,
2013-07-01 11:10:00,89.2,61.0,29.82,SE,134,1.0,1.0,39,0.00,,,0.00,Wunderground v.1.15,2013-07-01 18:10:00,
2013-07-01 11:15:00,89.7,60.7,29.82,SE,136,0.0,2.0,38,0.00,,,0.00,Wunderground v.1.15,2013-07-01 18:15:00,
2013-07-01 11:25:00,90.3,61.2,29.82,SE,136,0.0,1.0,38,0.00,,,0.00,Wunderground v.1.15,2013-07-01 18:25:00,
2013-07-01 11:30:00,91.1,62.0,29.82,SE,137,0.0,0.0,38,0.00,,,0.00,Wunderground v.1.15,2013-07-01 18:30:00,
2013-07-01 11:35:00,91.7,61.0,29.82,SE,144,1.0,2.0,36,0.00,,,0.00,Wunderground v.1.15,2013-07-01 18:35:00,
2013-07-01 11:40:00,91.4,61.5,29.82,SSE,150,2.0,2.0,37,0.00,,,0.00,Wunderground v.1.15,2013-07-01 18:40:00,
2013-07-01 11:45:00,91.7,61.0,29.82,SSE,151,2.0,2.0,36,0.00,,,0.00,Wunderground v.1.15,2013-07-01 18:45:00,
2013-07-01 11:50:00,92.0,62.0,29.82,ESE,123,1.0,1.0,37,0.00,,,0.00,Wunderground v.1.15,2013-07-01 18:50:00,
2013-07-01 11:55:00,92.3,61.5,29.82,ESE,123,1.0,1.0,36,0.00,,,0.00,Wunderground v.1.15,2013-07-01 18:55:00,
2013-07-01 12:05:00,94.3,62.4,29.82,SW,221,1.0,1.0,35,0.00,,,0.00,Wunderground v.1.15,2013-07-01 19:05:00,
2013-07-01 12:10:00,95.1,63.1,29.82,NNW,328,1.0,3.0,35,0.00,,,0.00,Wunderground v.1.15,2013-07-01 19:10:00,
2013-07-01 12:15:00,95.1,63.1,29.82,NW,317,1.0,3.0,35,0.00,,,0.00,Wunderground v.1.15,2013-07-01 19:15:00,
2013-07-01 12:25:00,93.3,63.1,29.82,NW,306,2.0,4.0,37,0.00,,,0.00,Wunderground v.1.15,2013-07-01 19:25:00,
2013-07-01 12:30:00,93.2,63.1,29.83,West,261,2.0,3.0,37,0.00,,,0.00,Wunderground v.1.15,2013-07-01 19:30:00,
2013-07-01 12:35:00,93.6,63.4,29.82,NNW,331,2.0,3.0,37,0.00,,,0.00,Wunderground v.1.15,2013-07-01 19:35:00,
2013-07-01 12:40:00,94.1,63.9,29.83,West,266,1.0,1.0,37,0.00,,,0.00,Wunderground v.1.15,2013-07-01 19:40:00,
2013-07-01 12:50:00,93.7,63.5,29.82,WNW,300,3.0,3.0,37,0.00,,,0.00,Wunderground v.1.15,2013-07-01 19:50:00,
2013-07-01 12:55:00,93.3,63.1,29.82,NW,312,3.0,3.0,37,0.00,,,0.00,Wunderground v.1.15,2013-07-01 19:55:00,
2013-07-01 13:05:00,93.7,62.7,29.83,West,261,2.0,2.0,36,0.00,,,0.00,Wunderground v.1.15,2013-07-01 20:05:00,
2013-07-01 13:10:00,93.7,62.7,29.83,WSW,256,2.0,2.0,36,0.00,,,0.00,Wunderground v.1.15,2013-07-01 20:10:00,
2013-07-01 13:15:00,93.0,62.9,29.83,WSW,257,2.0,2.0,37,0.00,,,0.00,Wunderground v.1.15,2013-07-01 20:15:00,
2013-07-01 13:25:00,93.8,62.0,29.83,WNW,297,1.0,4.0,35,0.00,,,0.00,Wunderground v.1.15,2013-07-01 20:25:00,
2013-07-01 13:30:00,93.0,62.1,29.83,WNW,283,2.0,4.0,36,0.00,,,0.00,Wunderground v.1.15,2013-07-01 20:30:00,
2013-07-01 13:35:00,93.5,62.5,29.83,SW,230,2.0,4.0,36,0.00,,,0.00,Wunderground v.1.15,2013-07-01 20:35:00,
2013-07-01 13:40:00,94.1,62.3,29.83,West,265,2.0,2.0,35,0.00,,,0.00,Wunderground v.1.15,2013-07-01 20:40:00,
2013-07-01 13:50:00,95.0,63.1,29.83,WSW,254,1.0,1.0,35,0.00,,,0.00,Wunderground v.1.15,2013-07-01 20:50:00,
2013-07-01 13:55:00,96.0,63.1,29.83,West,263,1.0,1.0,34,0.00,,,0.00,Wunderground v.1.15,2013-07-01 20:55:00,
2013-07-01 14:00:00,96.7,62.9,29.83,West,260,1.0,1.0,33,0.00,,,0.00,Wunderground v.1.15,2013-07-01 21:00:00,
2013-07-01 14:05:00,97.2,62.4,29.83,NW,314,1.0,3.0,32,0.00,,,0.00,Wunderground v.1.15,2013-07-01 21:05:00,
2013-07-01 14:10:00,96.9,61.3,29.83,SSE,150,1.0,2.0,31,0.00,,,0.00,Wunderground v.1.15,2013-07-01 21:10:00,
2013-07-01 14:15:00,96.4,61.7,29.83,NW,304,1.0,2.0,32,0.00,,,0.00,Wunderground v.1.15,2013-07-01 21:15:00,
2013-07-01 14:25:00,95.3,62.5,29.82,West,261,2.0,2.0,34,0.00,,,0.00,Wunderground v.1.15,2013-07-01 21:25:00,
2013-07-01 14:30:00,95.6,61.0,29.82,NW,315,1.0,1.0,32,0.00,,,0.00,Wunderground v.1.15,2013-07-01 21:30:00,
2013-07-01 14:35:00,95.9,61.3,29.82,WNW,299,1.0,3.0,32,0.00,,,0.00,Wunderground v.1.15,2013-07-01 21:35:00,
2013-07-01 14:40:00,96.0,61.4,29.82,North,355,1.0,2.0,32,0.00,,,0.00,Wunderground v.1.15,2013-07-01 21:40:00,
2013-07-01 14:45:00,95.3,59.9,29.82,West,279,2.0,2.0,31,0.00,,,0.00,Wunderground v.1.15,2013-07-01 21:45:00,
2013-07-01 14:55:00,95.7,59.3,29.82,West,263,1.0,2.0,30,0.00,,,0.00,Wunderground v.1.15,2013-07-01 21:55:00,
2013-07-01 15:00:00,95.8,58.4,29.82,WSW,257,1.0,3.0,29,0.00,,,0.00,Wunderground v.1.15,2013-07-01 22:00:00,
2013-07-01 15:05:00,94.7,58.4,29.83,North,351,2.0,3.0,30,0.00,,,0.00,Wunderground v.1.15,2013-07-01 22:05:00,
2013-07-01 15:15:00,96.0,59.6,29.82,SE,125,0.0,2.0,30,0.00,,,0.00,Wunderground v.1.15,2013-07-01 22:15:00,
2013-07-01 15:20:00,96.5,59.0,29.82,WSW,244,0.0,1.0,29,0.00,,,0.00,Wunderground v.1.15,2013-07-01 22:20:00,
2013-07-01 15:25:00,96.3,57.9,29.82,West,263,1.0,1.0,28,0.00,,,0.00,Wunderground v.1.15,2013-07-01 22:25:00,
2013-07-01 15:30:00,96.8,58.3,29.82,West,266,1.0,1.0,28,0.00,,,0.00,Wunderground v.1.15,2013-07-01 22:30:00,
2013-07-01 15:35:00,97.0,57.5,29.82,West,267,0.0,1.0,27,0.00,,,0.00,Wunderground v.1.15,2013-07-01 22:35:00,
2013-07-01 15:45:00,97.2,57.6,29.82,WNW,286,1.0,4.0,27,0.00,,,0.00,Wunderground v.1.15,2013-07-01 22:45:00,
2013-07-01 15:50:00,97.1,57.6,29.82,NW,304,1.0,2.0,27,0.00,,,0.00,Wunderground v.1.15,2013-07-01 22:50:00,
2013-07-01 15:55:00,97.2,58.7,29.81,West,279,1.0,2.0,28,0.00,,,0.00,Wunderground v.1.15,2013-07-01 22:55:00,
2013-07-01 16:00:00,97.2,58.7,29.81,NW,313,1.0,1.0,28,0.00,,,0.00,Wunderground v.1.15,2013-07-01 23:00:00,
2013-07-01 16:10:00,98.0,57.3,29.81,South,175,1.0,1.0,26,0.00,,,0.00,Wunderground v.1.15,2013-07-01 23:10:00,
2013-07-01 16:15:00,97.7,58.1,29.81,South,190,1.0,2.0,27,0.00,,,0.00,Wunderground v.1.15,2013-07-01 23:15:00,
2013-07-01 16:20:00,97.8,59.2,29.81,South,190,1.0,1.0,28,0.00,,,0.00,Wunderground v.1.15,2013-07-01 23:20:00,
2013-07-01 16:30:00,98.1,58.4,29.81,WSW,238,1.0,1.0,27,0.00,,,0.00,Wunderground v.1.15,2013-07-01 23:30:00,
2013-07-01 16:35:00,98.0,59.3,29.81,SW,234,0.0,1.0,28,0.00,,,0.00,Wunderground v.1.15,2013-07-01 23:35:00,
2013-07-01 16:40:00,98.0,59.3,29.81,SE,145,0.0,0.0,28,0.00,,,0.00,Wunderground v.1.15,2013-07-01 23:40:00,
2013-07-01 16:45:00,98.1,59.4,29.81,SE,145,0.0,0.0,28,0.00,,,0.00,Wunderground v.1.15,2013-07-01 23:45:00,
2013-07-01 16:55:00,97.1,59.6,29.81,SE,145,0.0,0.0,29,0.00,,,0.00,Wunderground v.1.15,2013-07-01 23:55:00,
2013-07-01 17:00:00,96.8,59.3,29.81,SE,145,0.0,2.0,29,0.00,,,0.00,Wunderground v.1.15,2013-07-02 00:00:00,
2013-07-01 17:05:00,97.0,59.5,29.81,SE,145,0.0,2.0,29,0.00,,,0.00,Wunderground v.1.15,2013-07-02 00:05:00,
2013-07-01 17:15:00,97.9,59.3,29.80,SE,145,0.0,0.0,28,0.00,,,0.00,Wunderground v.1.15,2013-07-02 00:15:00,
2013-07-01 17:20:00,98.2,58.5,29.80,SE,145,0.0,0.0,27,0.00,,,0.00,Wunderground v.1.15,2013-07-02 00:20:00,
2013-07-01 17:25:00,98.3,59.6,29.80,SE,145,0.0,0.0,28,0.00,,,0.00,Wunderground v.1.15,2013-07-02 00:25:00,
2013-07-01 17:30:00,98.0,59.3,29.80,SSE,150,0.0,0.0,28,0.00,,,0.00,Wunderground v.1.15,2013-07-02 00:30:00,
2013-07-01 17:35:00,97.5,59.9,29.80,SSE,150,0.0,0.0,29,0.00,,,0.00,Wunderground v.1.15,2013-07-02 00:35:00,
2013-07-01 17:40:00,97.3,58.7,29.80,SSE,149,0.0,1.0,28,0.00,,,0.00,Wunderground v.1.15,2013-07-02 00:40:00,
2013-07-01 17:50:00,96.2,58.8,29.80,NW,317,2.0,2.0,29,0.00,,,0.00,Wunderground v.1.15,2013-07-02 00:50:00,
2013-07-01 17:55:00,95.9,58.5,29.80,NW,317,1.0,2.0,29,0.00,,,0.00,Wunderground v.1.15,2013-07-02 00:55:00,
2013-07-01 18:00:00,95.8,58.4,29.80,ESE,103,1.0,1.0,29,0.00,,,0.00,Wunderground v.1.15,2013-07-02 01:00:00,
2013-07-01 18:05:00,95.8,58.4,29.80,ESE,103,1.0,1.0,29,0.00,,,0.00,Wunderground v.1.15,2013-07-02 01:05:00,
2013-07-01 18:15:00,95.5,58.2,29.79,West,281,1.0,1.0,29,0.00,,,0.00,Wunderground v.1.15,2013-07-02 01:15:00,
2013-07-01 18:25:00,94.7,57.5,29.79,NW,313,1.0,3.0,29,0.00,,,0.00,Wunderground v.1.15,2013-07-02 01:25:00,
2013-07-01 18:35:00,94.3,58.1,29.79,West,264,1.0,1.0,30,0.00,,,0.00,Wunderground v.1.15,2013-07-02 01:35:00,
2013-07-01 18:40:00,94.0,58.8,29.80,WSW,247,0.0,0.0,31,0.00,,,0.00,Wunderground v.1.15,2013-07-02 01:40:00,
2013-07-01 18:45:00,94.0,59.7,29.80,WSW,247,0.0,0.0,32,0.00,,,0.00,Wunderground v.1.15,2013-07-02 01:45:00,
2013-07-01 18:55:00,93.4,58.2,29.80,West,279,0.0,0.0,31,0.00,,,0.00,Wunderground v.1.15,2013-07-02 01:55:00,
2013-07-01 19:00:00,93.1,58.0,29.80,West,279,0.0,0.0,31,0.00,,,0.00,Wunderground v.1.15,2013-07-02 02:00:00,
2013-07-01 19:05:00,92.4,58.3,29.80,West,281,0.0,0.0,32,0.00,,,0.00,Wunderground v.1.15,2013-07-02 02:05:00,
2013-07-01 19:15:00,90.6,57.6,29.80,WNW,284,0.0,1.0,33,0.00,,,0.00,Wunderground v.1.15,2013-07-02 02:15:00,
2013-07-01 19:20:00,89.7,55.9,29.80,WNW,284,0.0,0.0,32,0.00,,,0.00,Wunderground v.1.15,2013-07-02 02:20:00,
2013-07-01 19:25:00,89.0,57.0,29.80,WNW,284,0.0,0.0,34,0.00,,,0.00,Wunderground v.1.15,2013-07-02 02:25:00,
2013-07-01 19:30:00,88.4,56.5,29.80,WNW,284,0.0,0.0,34,0.00,,,0.00,Wunderground v.1.15,2013-07-02 02:30:00,
2013-07-01 19:35:00,88.0,56.9,29.80,WNW,284,0.0,0.0,35,0.00,,,0.00,Wunderground v.1.15,2013-07-02 02:35:00,
2013-07-01 19:45:00,87.1,58.4,29.81,WNW,284,0.0,0.0,38,0.00,,,0.00,Wunderground v.1.15,2013-07-02 02:45:00,
2013-07-01 19:50:00,86.7,58.1,29.81,WNW,284,0.0,0.0,38,0.00,,,0.00,Wunderground v.1.15,2013-07-02 02:50:00,
2013-07-01 20:00:00,85.8,58.0,29.81,WNW,284,0.0,0.0,39,0.00,,,0.00,Wunderground v.1.15,2013-07-02 03:00:00,
2013-07-01 20:05:00,85.3,58.2,29.81,WNW,284,0.0,0.0,40,0.00,,,0.00,Wunderground v.1.15,2013-07-02 03:05:00,
2013-07-01 20:15:00,84.7,58.4,29.81,WNW,284,0.0,0.0,41,0.00,,,0.00,Wunderground v.1.15,2013-07-02 03:15:00,
2013-07-01 20:20:00,84.5,56.8,29.81,WNW,284,0.0,0.0,39,0.00,,,0.00,Wunderground v.1.15,2013-07-02 03:20:00,
2013-07-01 20:25:00,84.2,57.3,29.81,WNW,284,0.0,0.0,40,0.00,,,0.00,Wunderground v.1.15,2013-07-02 03:25:00,
2013-07-01 20:30:00,83.9,57.0,29.81,WNW,284,0.0,0.0,40,0.00,,,0.00,Wunderground v.1.15,2013-07-02 03:30:00,
2013-07-01 20:40:00,83.3,57.1,29.81,WNW,284,0.0,0.0,41,0.00,,,0.00,Wunderground v.1.15,2013-07-02 03:40:00,
2013-07-01 20:45:00,82.8,56.7,29.81,WNW,284,0.0,0.0,41,0.00,,,0.00,Wunderground v.1.15,2013-07-02 03:45:00,
2013-07-01 20:50:00,82.5,57.1,29.81,WNW,284,0.0,0.0,42,0.00,,,0.00,Wunderground v.1.15,2013-07-02 03:50:00,
2013-07-01 21:00:00,82.1,56.7,29.81,WNW,284,0.0,1.0,42,0.00,,,0.00,Wunderground v.1.15,2013-07-02 04:00:00,
2013-07-01 21:05:00,82.0,56.6,29.81,WNW,284,0.0,1.0,42,0.00,,,0.00,Wunderground v.1.15,2013-07-02 04:05:00,
2013-07-01 21:10:00,81.8,56.5,29.81,WNW,284,0.0,0.0,42,0.00,,,0.00,Wunderground v.1.15,2013-07-02 04:10:00,
2013-07-01 21:20:00,81.6,54.9,29.80,WNW,284,0.0,0.0,40,0.00,,,0.00,Wunderground v.1.15,2013-07-02 04:20:00,
2013-07-01 21:25:00,81.7,55.7,29.80,WNW,284,0.0,0.0,41,0.00,,,0.00,Wunderground v.1.15,2013-07-02 04:25:00,
2013-07-01 21:30:00,81.6,55.6,29.80,WNW,296,0.0,1.0,41,0.00,,,0.00,Wunderground v.1.15,2013-07-02 04:30:00,
2013-07-01 21:35:00,81.6,55.6,29.79,West,275,1.0,1.0,41,0.00,,,0.00,Wunderground v.1.15,2013-07-02 04:35:00,
2013-07-01 21:40:00,81.5,55.5,29.80,West,275,1.0,1.0,41,0.00,,,0.00,Wunderground v.1.15,2013-07-02 04:40:00,
2013-07-01 21:45:00,81.2,55.9,29.80,West,275,0.0,1.0,42,0.00,,,0.00,Wunderground v.1.15,2013-07-02 04:45:00,
2013-07-01 21:50:00,80.9,56.3,29.81,NNW,327,0.0,0.0,43,0.00,,,0.00,Wunderground v.1.15,2013-07-02 04:50:00,
2013-07-01 22:00:00,80.5,56.6,29.82,NNW,342,0.0,0.0,44,0.00,,,0.00,Wunderground v.1.15,2013-07-02 05:00:00,
2013-07-01 22:05:00,80.3,56.4,29.82,NNW,342,0.0,0.0,44,0.00,,,0.00,Wunderground v.1.15,2013-07-02 05:05:00,
2013-07-01 22:10:00,80.1,56.2,29.82,NNW,342,0.0,0.0,44,0.00,,,0.00,Wunderground v.1.15,2013-07-02 05:10:00,
2013-07-01 22:15:00,80.0,56.1,29.82,NNW,342,0.0,0.0,44,0.00,,,0.00,Wunderground v.1.15,2013-07-02 05:15:00,
2013-07-01 22:25:00,79.8,56.6,29.83,NNW,342,0.0,0.0,45,0.00,,,0.00,Wunderground v.1.15,2013-07-02 05:25:00,
2013-07-01 22:30:00,79.7,56.5,29.83,NNW,342,0.0,0.0,45,0.00,,,0.00,Wunderground v.1.15,2013-07-02 05:30:00,
2013-07-01 22:40:00,79.3,56.1,29.83,NNW,342,0.0,0.0,45,0.00,,,0.00,Wunderground v.1.15,2013-07-02 05:40:00,
2013-07-01 22:45:00,79.2,56.6,29.83,NNW,342,0.0,0.0,46,0.00,,,0.00,Wunderground v.1.15,2013-07-02 05:45:00,
2013-07-01 22:50:00,79.1,55.9,29.82,NNW,342,0.0,0.0,45,0.00,,,0.00,Wunderground v.1.15,2013-07-02 05:50:00,
2013-07-01 22:55:00,79.0,56.5,29.82,NNW,342,0.0,0.0,46,0.00,,,0.00,Wunderground v.1.15,2013-07-02 05:55:00,
2013-07-01 23:05:00,78.9,55.1,29.82,NNW,341,0.0,1.0,44,0.00,,,0.00,Wunderground v.1.15,2013-07-02 06:05:00,
2013-07-01 23:10:00,79.1,54.7,29.82,NNW,348,0.0,0.0,43,0.00,,,0.00,Wunderground v.1.15,2013-07-02 06:10:00,
2013-07-01 23:15:00,79.2,54.8,29.82,NNW,348,0.0,0.0,43,0.00,,,0.00,Wunderground v.1.15,2013-07-02 06:15:00,
2013-07-01 23:20:00,79.1,54.7,29.82,NNW,348,0.0,0.0,43,0.00,,,0.00,Wunderground v.1.15,2013-07-02 06:20:00,
2013-07-01 23:30:00,78.4,54.7,29.82,NNW,348,0.0,0.0,44,0.00,,,0.00,Wunderground v.1.15,2013-07-02 06:30:00,
2013-07-01 23:35:00,78.0,54.9,29.82,NNW,348,0.0,0.0,45,0.00,,,0.00,Wunderground v.1.15,2013-07-02 06:35:00,
2013-07-01 23:45:00,77.3,54.9,29.83,NNW,348,0.0,0.0,46,0.00,,,0.00,Wunderground v.1.15,2013-07-02 06:45:00,
2013-07-01 23:50:00,77.0,54.6,29.83,NNW,348,0.0,0.0,46,0.00,,,0.00,Wunderground v.1.15,2013-07-02 06:50:00,
2013-07-01 23:55:00,76.6,54.9,29.83,NNW,348,0.0,0.0,47,0.00,,,0.00,Wunderground v.1.15,2013-07-02 06:55:00,